TimeMDT,TemperatureF,Dew PointF,Humidity,Sea Level PressureIn,VisibilityMPH,Wind Direction,Wind SpeedMPH,Gust SpeedMPH,PrecipitationIn,Events,Conditions,WindDirDegrees,DateUTC
12:15 AM,49.6,43.0,78,29.84,10.0,WSW,3.5,-,N/A,,Clear,240,2013-09-30 06:15:00
12:35 AM,48.4,42.4,80,29.84,10.0,Calm,Calm,-,N/A,,Clear,0,2013-09-30 06:35:00
12:55 AM,48.2,42.4,80,29.84,10.0,West,3.5,-,N/A,,Clear,280,2013-09-30 06:55:00
1:15 AM,47.1,43.7,88,29.85,10.0,Calm,Calm,-,N/A,,Clear,0,2013-09-30 07:15:00
1:35 AM,46.6,43.5,89,29.85,10.0,Calm,Calm,-,N/A,,Clear,0,2013-09-30 07:35:00
1:55 AM,48.0,44.1,86,29.85,10.0,West,4.6,-,N/A,,Clear,270,2013-09-30 07:55:00
2:15 AM,46.8,43.2,87,29.84,10.0,WNW,3.5,-,N/A,,Clear,290,2013-09-30 08:15:00
2:35 AM,46.9,43.7,88,29.85,10.0,WNW,3.5,-,N/A,,Clear,290,2013-09-30 08:35:00
2:55 AM,47.5,43.0,84,29.85,10.0,SW,4.6,-,N/A,,Clear,230,2013-09-30 08:55:00
3:15 AM,48.2,44.1,86,29.85,10.0,SSW,4.6,-,N/A,,Clear,210,2013-09-30 09:15:00
3:35 AM,49.3,43.7,81,29.84,10.0,WSW,5.8,-,N/A,,Clear,240,2013-09-30 09:35:00
3:55 AM,46.4,43.0,88,29.84,10.0,West,5.8,-,N/A,,Clear,280,2013-09-30 09:55:00
4:15 AM,48.2,43.3,83,29.84,10.0,West,6.9,-,N/A,,Clear,260,2013-09-30 10:15:00
4:35 AM,46.9,43.0,86,29.83,10.0,WSW,5.8,-,N/A,,Clear,250,2013-09-30 10:35:00
4:55 AM,47.7,42.8,83,29.82,10.0,Calm,Calm,-,N/A,,Clear,0,2013-09-30 10:55:00
5:15 AM,46.4,42.8,87,29.82,10.0,West,5.8,-,N/A,,Clear,260,2013-09-30 11:15:00
5:35 AM,46.8,43.0,87,29.83,10.0,NW,4.6,-,N/A,,Clear,310,2013-09-30 11:35:00
5:55 AM,46.6,42.1,84,29.83,10.0,SW,4.6,-,N/A,,Clear,230,2013-09-30 11:55:00
6:15 AM,46.2,42.6,87,29.82,10.0,Calm,Calm,-,N/A,,Clear,0,2013-09-30 12:15:00
6:35 AM,45.3,41.5,87,29.82,10.0,Calm,Calm,-,N/A,,Clear,0,2013-09-30 12:35:00
6:55 AM,43.9,41.4,91,29.83,10.0,West,3.5,-,N/A,,Clear,280,2013-09-30 12:55:00
7:15 AM,45.0,42.6,91,29.83,10.0,Calm,Calm,-,N/A,,Clear,0,2013-09-30 13:15:00
7:35 AM,46.6,43.7,90,29.82,10.0,WSW,4.6,-,N/A,,Clear,250,2013-09-30 13:35:00
7:55 AM,48.6,45.3,89,29.82,10.0,WSW,3.5,-,N/A,,Clear,250,2013-09-30 13:55:00
8:15 AM,52.0,47.1,83,29.82,10.0,WSW,5.8,-,N/A,,Clear,250,2013-09-30 14:15:00
8:35 AM,55.4,47.5,75,29.82,10.0,West,5.8,-,N/A,,Clear,260,2013-09-30 14:35:00
8:55 AM,56.8,47.3,70,29.83,10.0,West,4.6,-,N/A,,Clear,270,2013-09-30 14:55:00
9:15 AM,59.2,47.1,64,29.82,10.0,West,5.8,-,N/A,,Clear,260,2013-09-30 15:15:00
9:35 AM,62.6,47.3,57,29.83,10.0,West,6.9,-,N/A,,Clear,260,2013-09-30 15:35:00
9:55 AM,64.6,46.6,52,29.83,10.0,West,8.1,-,N/A,,Clear,270,2013-09-30 15:55:00
10:15 AM,68.0,46.4,46,29.83,10.0,West,9.2,-,N/A,,Clear,260,2013-09-30 16:15:00
10:35 AM,71.2,43.9,37,29.83,10.0,West,8.1,-,N/A,,Clear,260,2013-09-30 16:35:00
10:55 AM,72.9,44.8,37,29.83,10.0,West,6.9,-,N/A,,Clear,260,2013-09-30 16:55:00
11:15 AM,75.0,46.0,36,29.82,10.0,West,6.9,-,N/A,,Clear,270,2013-09-30 17:15:00
11:35 AM,77.9,45.3,31,29.81,10.0,West,5.8,-,N/A,,Clear,270,2013-09-30 17:35:00
11:55 AM,79.9,43.5,28,29.81,10.0,West,4.6,-,N/A,,Clear,260,2013-09-30 17:55:00
12:15 PM,81.5,43.7,26,29.80,10.0,WSW,4.6,-,N/A,,Clear,250,2013-09-30 18:15:00
12:35 PM,84.2,42.3,23,29.79,10.0,SW,5.8,-,N/A,,Clear,220,2013-09-30 18:35:00
12:55 PM,86.4,32.0,14,29.77,10.0,SW,12.7,18.4,N/A,,Clear,230,2013-09-30 18:55:00
1:15 PM,87.1,32.4,14,29.77,10.0,SSW,15.0,19.6,N/A,,Clear,200,2013-09-30 19:15:00
1:35 PM,87.6,32.7,14,29.76,10.0,South,12.7,21.9,N/A,,Clear,190,2013-09-30 19:35:00
1:55 PM,87.6,32.2,14,29.75,10.0,SSW,17.3,20.7,N/A,,Clear,200,2013-09-30 19:55:00
2:15 PM,87.3,32.0,14,29.75,10.0,SSW,13.8,-,N/A,,Clear,200,2013-09-30 20:15:00
2:35 PM,87.1,31.6,14,29.74,10.0,SSW,15.0,21.9,N/A,,Clear,200,2013-09-30 20:35:00
2:55 PM,88.2,31.1,13,29.73,10.0,SSW,16.1,19.6,N/A,,Clear,200,2013-09-30 20:55:00
3:15 PM,88.3,31.1,13,29.72,10.0,South,16.1,20.7,N/A,,Clear,190,2013-09-30 21:15:00
3:35 PM,87.6,30.6,13,29.72,10.0,South,13.8,19.6,N/A,,Clear,190,2013-09-30 21:35:00
3:55 PM,87.6,31.1,13,29.71,10.0,SSW,15.0,-,N/A,,Clear,200,2013-09-30 21:55:00
4:15 PM,87.8,31.1,13,29.71,10.0,SSW,12.7,-,N/A,,Clear,210,2013-09-30 22:15:00
4:35 PM,87.8,31.6,13,29.71,10.0,SSW,11.5,16.1,N/A,,Clear,210,2013-09-30 22:35:00
4:55 PM,87.1,32.0,14,29.71,10.0,SSW,13.8,17.3,N/A,,Clear,200,2013-09-30 22:55:00
5:15 PM,86.4,32.4,14,29.71,10.0,SSW,5.8,-,N/A,,Clear,200,2013-09-30 23:15:00
5:35 PM,85.1,32.0,15,29.71,10.0,SSW,8.1,-,N/A,,Clear,200,2013-09-30 23:35:00
5:55 PM,82.6,34.7,18,29.71,10.0,SSW,6.9,-,N/A,,Clear,200,2013-09-30 23:55:00
6:15 PM,79.2,36.5,22,29.71,10.0,South,4.6,-,N/A,,Clear,190,2013-10-01 00:15:00
6:35 PM,74.8,36.7,25,29.71,10.0,South,5.8,-,N/A,,Clear,180,2013-10-01 00:35:00
6:55 PM,73.0,36.7,27,29.72,10.0,Calm,Calm,-,N/A,,Clear,0,2013-10-01 00:55:00
7:15 PM,70.9,37.4,29,29.73,10.0,Calm,Calm,-,N/A,,Clear,0,2013-10-01 01:15:00
7:35 PM,70.0,38.3,31,29.73,10.0,Calm,Calm,-,N/A,,Clear,0,2013-10-01 01:35:00
7:55 PM,67.8,39.6,36,29.74,10.0,SSW,3.5,-,N/A,,Clear,210,2013-10-01 01:55:00
8:15 PM,65.1,39.7,39,29.75,10.0,Calm,Calm,-,N/A,,Clear,0,2013-10-01 02:15:00
8:35 PM,66.4,40.8,39,29.76,10.0,Calm,Calm,-,N/A,,Clear,0,2013-10-01 02:35:00
8:55 PM,65.8,43.0,43,29.76,10.0,WSW,3.5,-,N/A,,Clear,240,2013-10-01 02:55:00
9:15 PM,62.2,43.9,51,29.77,10.0,West,4.6,-,N/A,,Clear,280,2013-10-01 03:15:00
9:35 PM,61.0,44.8,55,29.77,10.0,WNW,4.6,-,N/A,,Clear,290,2013-10-01 03:35:00
9:55 PM,64.8,45.5,50,29.77,10.0,SSW,5.8,-,N/A,,Clear,210,2013-10-01 03:55:00
10:15 PM,64.4,46.4,52,29.78,10.0,West,5.8,-,N/A,,Clear,270,2013-10-01 04:15:00
10:35 PM,63.5,46.8,54,29.78,10.0,SW,3.5,-,N/A,,Clear,230,2013-10-01 04:35:00
10:55 PM,61.9,46.4,57,29.79,10.0,WNW,5.8,-,N/A,,Clear,290,2013-10-01 04:55:00
11:15 PM,60.8,46.4,59,29.80,10.0,West,5.8,-,N/A,,Clear,260,2013-10-01 05:15:00
11:35 PM,59.2,46.4,63,29.80,10.0,Calm,Calm,-,N/A,,Clear,0,2013-10-01 05:35:00
11:55 PM,57.7,46.4,66,29.82,10.0,Calm,Calm,-,N/A,,Clear,0,2013-10-01 05:55:00